Weather History for Luxor, Egypt

Change the Weather History Date:

Saturday, September 28, 2013

  Actual Average Record
Temperature  
Mean Temperature 82 °F -  
Max Temperature 95 °F 92 °F 109 °F (2010)
Min Temperature 70 °F 65 °F 66 °F (2000)
Cooling Degree Days 18    
Growing Degree Days 32 (Base 50)    
Moisture  
Dew Point 59 °F    
Average Humidity 46    
Maximum Humidity 73    
Minimum Humidity 19    
Precipitation  
Precipitation 0.00 in 0.00 in - ()
Sea Level Pressure  
Sea Level Pressure 29.83 in    
Wind  
Wind Speed 3 mph ()    
Max Wind Speed 6 mph    
Max Gust Speed -    
Visibility 6.0 miles    
Events      
Averages and records for this station are not official NWS values.
T = Trace of Precipitation, MM = Missing Value Source: Averaged Metar Reports

Daily Weather History Graph

Daily Weather History Graph

Search for Another Location

Airport:

Trip Planner

Search our weather history database for the weather conditions in past years. The results will help you decide how hot, cold, wet, or windy it might be!

Date:

Astronomy

Sep. 28, 2013 Rise Set
Actual Time 5:40 AM EET 5:39 PM EET
Civil Twilight 5:17 AM EET 6:02 PM EET
Nautical Twilight 4:50 AM EET 6:28 PM EET
Astronomical Twilight 4:23 AM EET 6:55 PM EET
Moon No Moon Rise 1:15 PM EET (9/28)
Length of Visible Light 12h 44m
Length of Day
11h 58m
Last Quarter, 38% of the Moon is Illuminated
Sep 28
Last Quarter
Oct 5
New
Oct 12
First Quarter
Oct 19
Full
Oct 27
Last Quarter

Hourly Weather History & Observations

Time (EET) Temp. Heat Index Dew Point Humidity Pressure Visibility Wind Dir Wind Speed Gust Speed Precip Events Conditions
12:00 AM 78.8 °F - 59.0 °F 51% 29.83 in - SE 4.6 mph - N/A   Clear
1:00 AM 77.0 °F - 59.0 °F 54% 29.80 in - South 3.5 mph - N/A   Clear
2:00 AM 75 °F - 59 °F 47% 29.66 in 6 mi SSE 4.6 mph - -  
2:00 AM 75.2 °F - 59.0 °F 57% 29.80 in - SSE 4.6 mph - N/A   Clear
3:00 AM 73.4 °F - 59.0 °F 61% 29.80 in - South 2.3 mph - N/A   Clear
4:00 AM 71.6 °F - 59.0 °F 64% 29.80 in - South 2.3 mph - N/A   Clear
5:00 AM 71.6 °F - 59.0 °F 64% 29.83 in - South 2.3 mph - N/A   Clear
6:00 AM 69.8 °F - 60.8 °F 73% 29.83 in - South 2.3 mph - N/A   Clear
7:00 AM 73.4 °F - 62.6 °F 69% 29.86 in - Calm Calm - N/A   Clear
8:00 AM 78 °F - 63 °F 51% 29.87 in 6 mi Calm Calm - -  
8:00 AM 78.8 °F - 62.6 °F 57% 29.86 in - Calm Calm - N/A   Clear
9:00 AM 82.4 °F 83.4 °F 62.6 °F 51% 29.89 in - WNW 3.5 mph - N/A   Clear
10:00 AM 84.2 °F 85.0 °F 62.6 °F 48% 29.89 in - North 4.6 mph - N/A   Clear
11:00 AM 87.8 °F 88.5 °F 62.6 °F 43% 29.86 in - North 3.5 mph - N/A   Clear
12:00 PM 89.6 °F 89.5 °F 60.8 °F 38% 29.86 in - North 3.5 mph - N/A   Clear
1:00 PM 93.2 °F 92.6 °F 59.0 °F 32% 29.83 in - WNW 3.5 mph - N/A   Clear
2:00 PM 94 °F - 57 °F 19% 29.80 in 6 mi WNW 3.5 mph - -  
2:00 PM 93.2 °F 91.9 °F 57.2 °F 30% 29.80 in - WNW 3.5 mph - N/A   Clear
3:00 PM 95.0 °F 93.7 °F 57.2 °F 28% 29.80 in - WNW 3.5 mph - N/A   Clear
4:00 PM 95.0 °F 93.0 °F 55.4 °F 26% 29.77 in - NNW 3.5 mph - N/A   Clear
5:00 PM 93.2 °F 91.9 °F 57.2 °F 30% 29.80 in - WNW 4.6 mph - N/A   Clear
6:00 PM 87.8 °F 86.5 °F 57.2 °F 35% 29.80 in - West 5.8 mph - N/A   Clear
7:00 PM 84.2 °F 83.8 °F 59.0 °F 42% 29.83 in - WSW 4.6 mph - N/A   Clear
8:00 PM 83 °F - 58 °F 33% 29.83 in 6 mi SW 3.5 mph - -  
8:00 PM 84.2 °F 83.8 °F 59.0 °F 42% 29.83 in - SW 3.5 mph - N/A   Clear
9:00 PM 82.4 °F 82.5 °F 59.0 °F 45% 29.86 in - SW 3.5 mph - N/A   Clear
10:00 PM 80.6 °F 81.1 °F 59.0 °F 48% 29.86 in - SW 2.3 mph - N/A   Clear
11:00 PM 78.8 °F - 59.0 °F 51% 29.86 in - Calm Calm - N/A   Clear